OLYMPUS 1

导读

OLYMPUS 1(奥林巴斯1号)是欧洲空间局(ESA)于1989年7月12日,通过阿里安-3火箭发射升空的试验通信卫星,也是当时人类建造的最大民用通信卫星。1991年5月它曾因事故失控漂离定点位置,后经营救修复恢复部分功能;1993年英仙座流星雨期间,它疑似受彗星碎块撞击再次姿态失控,最终被欧空局转移至GEO墓地轨道退役,在通信卫星试验和空间环境影响研究中留下了重要经验。

基本信息
目录编号:
20122
目录名称:
OLYMPUS 1
国际标识:
1989-053A
轨道中心:
EARTH
卫星名称:
OLYMPUS 1
卫星全名:
--
卫星状态:
在轨 (已飞行13516 天)
发射日期:
1989-07-12 UTC
国别 :
(ESA)
星等 :
--
轨道信息
数据来源 国际轨道数据 AOE轨道数据
星历时间 2026-07-14T02:21:09+0800
12小时前
查看轨道信息
2026-07-13T09:00:00+0800
1天前
查看轨道信息
半长轴 41860.582km 41860.554km
偏心率 0.0011893 0.0011946
轨道倾角 12.214° 12.214°
近地点辐角 351.001° 351.398°
升交点赤经 333.743° 333.749°
平近点角 190.683° 286.430°
近地点 35432.66km 35432.41km
远地点 35532.23km 35532.424km
周期 1420.586分钟 1420.585分钟
每日圈数 1.013666 1.013667
详细信息
使用方式:
暂无
2D轨道图
3D轨道图
轨道高度分析图
轨道倾角分析图
轨道综合分析图
查看轨道综合分析图